When you browse on this site, cookies collect data to enhance your experience and personalize the content and advertising you see.
Visit our Privacy Policy to learn more. By continuing to use the site, you agree to this use of cookies and data.
  • în România
  • Lista ţărilor
  • Pe 7 zile
  • Temperatura apei
  • Hartă satelitară
  • Meteo pe hartă
  • Widget-uri
  • user-avatar
    Intrare

    Meteo pe oră la Perevalnyy

    Astăzi, 19 Noiembrie, Luni

    Timp Temperatura Precipitaţii Vânt Presiune Umiditate
    00:00 +4°C° 0 mm 1 m/s 733 mmHg 92%
    01:00 +4°C° 0 mm 1 m/s 732 mmHg 93%
    02:00 +4°C° 0 mm 1 m/s 732 mmHg 93%
    03:00 +3°C° 0 mm 1 m/s 732 mmHg 93%
    04:00 +3°C° 0 mm 1 m/s 732 mmHg 93%
    05:00 +3°C° 0 mm 1 m/s 732 mmHg 92%
    06:00 +3°C° 0 mm 1 m/s 732 mmHg 91%
    07:00 +2°C° 0 mm 2 m/s 732 mmHg 89%
    08:00 +3°C° 0 mm 2 m/s 732 mmHg 86%
    09:00 +4°C° 0 mm 2 m/s 732 mmHg 83%
    10:00 +3°C° 0 mm 3 m/s 731 mmHg 81%
    11:00 +4°C° 0 mm 3 m/s 731 mmHg 78%
    12:00 +5°C° 0 mm 4 m/s 731 mmHg 75%
    13:00 +5°C° 0 mm 4 m/s 731 mmHg 76%
    14:00 +5°C° 0 mm 4 m/s 730 mmHg 76%
    15:00 +5°C° 0 mm 4 m/s 730 mmHg 77%
    16:00 +4°C° 0 mm 4 m/s 730 mmHg 80%
    17:00 +3°C° 0 mm 4 m/s 730 mmHg 82%
    18:00 +1°C° 0 mm 4 m/s 731 mmHg 85%
    19:00 +1°C° 0 mm 4 m/s 730 mmHg 84%
    20:00 +1°C° 0 mm 4 m/s 730 mmHg 83%
    21:00 +1°C° 0 mm 4 m/s 730 mmHg 82%
    22:00 +2°C° 0 mm 3 m/s 729 mmHg 81%
    23:00 +2°C° 0 mm 3 m/s 729 mmHg 79%

    Mâine, 20 Noiembrie, Marţi

    Timp Temperatura Precipitaţii Vânt Presiune Umiditate
    00:00 +1°C° 0 mm 3 m/s 729 mmHg 77%
    01:00 +1°C° 0 mm 3 m/s 729 mmHg 78%
    02:00 +1°C° 0 mm 3 m/s 728 mmHg 79%
    03:00 +2°C° 0 mm 2 m/s 728 mmHg 80%
    04:00 +3°C° 0 mm 2 m/s 728 mmHg 79%
    05:00 +3°C° 0 mm 2 m/s 728 mmHg 79%
    06:00 +3°C° 0 mm 2 m/s 728 mmHg 78%
    07:00 +4°C° 0.1 mm 2 m/s 728 mmHg 78%
    08:00 +4°C° 0.1 mm 2 m/s 728 mmHg 77%
    09:00 +4°C° 0.1 mm 2 m/s 728 mmHg 77%
    10:00 +4°C° 0.5 mm 2 m/s 727 mmHg 78%
    11:00 +6°C° 0.5 mm 1 m/s 727 mmHg 79%
    12:00 +6°C° 0.5 mm 1 m/s 727 mmHg 79%
    13:00 +6°C° 0.5 mm 1 m/s 726 mmHg 80%
    14:00 +6°C° 0.5 mm 1 m/s 726 mmHg 81%
    15:00 +5°C° 0.5 mm 2 m/s 726 mmHg 82%
    16:00 +6°C° 0 mm 1 m/s 726 mmHg 83%
    17:00 +6°C° 0 mm 1 m/s 726 mmHg 84%
    18:00 +6°C° 0 mm 1 m/s 726 mmHg 85%
    19:00 +6°C° 0 mm 1 m/s 726 mmHg 84%
    20:00 +6°C° 0 mm 1 m/s 726 mmHg 83%
    21:00 +7°C° 0 mm 1 m/s 726 mmHg 81%
    22:00 +6°C° 0 mm 2 m/s 727 mmHg 83%
    23:00 +6°C° 0 mm 2 m/s 727 mmHg 86%

    Poimâine, 21 Noiembrie, Miercuri

    Timp Temperatura Precipitaţii Vânt Presiune Umiditate
    00:00 +5°C° 0 mm 3 m/s 727 mmHg 88%
    01:00 +5°C° 0 mm 3 m/s 727 mmHg 88%
    02:00 +5°C° 0 mm 4 m/s 728 mmHg 89%
    03:00 +5°C° 0 mm 4 m/s 728 mmHg 89%
    04:00 +5°C° 0 mm 4 m/s 728 mmHg 90%
    05:00 +4°C° 0 mm 3 m/s 728 mmHg 90%
    06:00 +5°C° 0 mm 2 m/s 728 mmHg 91%
    07:00 +5°C° 0 mm 2 m/s 728 mmHg 90%
    08:00 +6°C° 0 mm 1 m/s 728 mmHg 89%
    09:00 +6°C° 0 mm 1 m/s 728 mmHg 88%
    10:00 +7°C° 0 mm 1 m/s 728 mmHg 85%
    11:00 +7°C° 0 mm 1 m/s 727 mmHg 82%
    12:00 +8°C° 0 mm 1 m/s 727 mmHg 78%
    13:00 +8°C° 0.2 mm 1 m/s 727 mmHg 79%
    14:00 +8°C° 0.2 mm 1 m/s 726 mmHg 80%
    15:00 +7°C° 0.2 mm 2 m/s 726 mmHg 81%
    16:00 +6°C° 0.9 mm 2 m/s 726 mmHg 85%
    17:00 +6°C° 0.9 mm 2 m/s 726 mmHg 88%
    18:00 +5°C° 0.9 mm 2 m/s 726 mmHg 91%
    19:00 +5°C° 1.1 mm 2 m/s 726 mmHg 92%
    20:00 +5°C° 1.1 mm 2 m/s 726 mmHg 93%
    21:00 +4°C° 1.1 mm 2 m/s 726 mmHg 93%
    22:00 +4°C° 0.3 mm 2 m/s 726 mmHg 93%
    23:00 +4°C° 0.3 mm 2 m/s 726 mmHg 93%

    22 Noiembrie, Joi

    Timp Temperatura Precipitaţii Vânt Presiune Umiditate
    00:00 +4°C° 0.3 mm 2 m/s 726 mmHg 93%
    01:00 +4°C° 0.2 mm 2 m/s 726 mmHg 93%
    02:00 +4°C° 0.2 mm 2 m/s 726 mmHg 93%
    03:00 +4°C° 0.2 mm 2 m/s 726 mmHg 93%
    04:00 +3°C° 0.2 mm 2 m/s 726 mmHg 93%
    05:00 +3°C° 0.2 mm 2 m/s 726 mmHg 93%
    06:00 +3°C° 0.2 mm 2 m/s 726 mmHg 93%
    07:00 +3°C° 0 mm 2 m/s 726 mmHg 92%
    08:00 +3°C° 0 mm 2 m/s 726 mmHg 91%
    09:00 +3°C° 0 mm 2 m/s 727 mmHg 89%
    10:00 +3°C° 0 mm 2 m/s 726 mmHg 87%
    11:00 +4°C° 0 mm 2 m/s 726 mmHg 85%
    12:00 +4°C° 0 mm 2 m/s 726 mmHg 82%
    13:00 +4°C° 0 mm 2 m/s 726 mmHg 82%
    14:00 +4°C° 0 mm 2 m/s 726 mmHg 81%
    15:00 +5°C° 0 mm 2 m/s 726 mmHg 80%
    16:00 +5°C° 0 mm 1 m/s 726 mmHg 82%
    17:00 +5°C° 0 mm 1 m/s 726 mmHg 83%
    18:00 +5°C° 0 mm 1 m/s 727 mmHg 85%
    19:00 +4°C° 0 mm 1 m/s 727 mmHg 86%
    20:00 +4°C° 0 mm 1 m/s 727 mmHg 88%
    21:00 +3°C° 0 mm 1 m/s 727 mmHg 89%
    22:00 +3°C° 0 mm 1 m/s 727 mmHg 89%
    23:00 +3°C° 0 mm 1 m/s 727 mmHg 89%

    23 Noiembrie, Vineri

    Timp Temperatura Precipitaţii Vânt Presiune Umiditate
    00:00 +3°C° 0 mm 1 m/s 727 mmHg 90%
    01:00 +2°C° 0 mm 1 m/s 728 mmHg 90%
    02:00 +1°C° 0 mm 2 m/s 728 mmHg 90%
    03:00 -1°C° 0 mm 2 m/s 728 mmHg 90%
    04:00 -1°C° 0 mm 2 m/s 728 mmHg 89%
    05:00 -1°C° 0 mm 2 m/s 729 mmHg 88%
    06:00 -1°C° 0 mm 3 m/s 729 mmHg 86%
    07:00 0°C° 0 mm 3 m/s 729 mmHg 82%
    08:00 0°C° 0 mm 3 m/s 730 mmHg 78%
    09:00 -1°C° 0 mm 4 m/s 730 mmHg 74%
    10:00 0°C° 0 mm 4 m/s 730 mmHg 68%
    11:00 +1°C° 0 mm 4 m/s 731 mmHg 63%
    12:00 +3°C° 0 mm 4 m/s 731 mmHg 57%
    13:00 +3°C° 0 mm 4 m/s 731 mmHg 56%
    14:00 +3°C° 0 mm 4 m/s 731 mmHg 56%
    15:00 +3°C° 0 mm 3 m/s 732 mmHg 55%
    16:00 +2°C° 0 mm 3 m/s 732 mmHg 61%
    17:00 +1°C° 0 mm 2 m/s 733 mmHg 67%
    18:00 +1°C° 0 mm 1 m/s 734 mmHg 72%
    19:00 +1°C° 0 mm 1 m/s 734 mmHg 75%
    20:00 0°C° 0 mm 1 m/s 735 mmHg 77%
    21:00 0°C° 0 mm 1 m/s 735 mmHg 79%
    22:00 -2°C° 0 mm 2 m/s 735 mmHg 81%
    23:00 -2°C° 0 mm 2 m/s 736 mmHg 82%

    24 Noiembrie, Sâmbătă

    Timp Temperatura Precipitaţii Vânt Presiune Umiditate
    00:00 -3°C° 0 mm 2 m/s 736 mmHg 83%
    01:00 -3°C° 0 mm 2 m/s 736 mmHg 83%
    02:00 -3°C° 0 mm 2 m/s 736 mmHg 84%
    03:00 -3°C° 0 mm 2 m/s 736 mmHg 85%
    04:00 -3°C° 0 mm 2 m/s 736 mmHg 85%
    05:00 -4°C° 0 mm 3 m/s 736 mmHg 85%
    06:00 -4°C° 0 mm 3 m/s 736 mmHg 85%
    07:00 -4°C° 0 mm 3 m/s 736 mmHg 83%
    08:00 -2°C° 0 mm 3 m/s 737 mmHg 80%
    09:00 -3°C° 0 mm 4 m/s 737 mmHg 77%
    10:00 -1°C° 0 mm 4 m/s 736 mmHg 73%
    11:00 0°C° 0 mm 4 m/s 736 mmHg 68%
    12:00 +1°C° 0 mm 4 m/s 736 mmHg 63%
    13:00 +1°C° 0 mm 4 m/s 735 mmHg 64%
    14:00 +1°C° 0 mm 4 m/s 735 mmHg 65%
    15:00 +1°C° 0 mm 4 m/s 735 mmHg 66%
    16:00 0°C° 0 mm 4 m/s 735 mmHg 71%
    17:00 0°C° 0 mm 3 m/s 735 mmHg 76%
    18:00 -1°C° 0 mm 3 m/s 735 mmHg 81%
    19:00 -1°C° 0 mm 3 m/s 735 mmHg 81%
    20:00 -2°C° 0 mm 2 m/s 735 mmHg 80%
    21:00 -2°C° 0 mm 2 m/s 735 mmHg 80%
    22:00 -2°C° 0 mm 2 m/s 734 mmHg 79%
    23:00 -2°C° 0 mm 2 m/s 734 mmHg 77%
    Arată mai mult